sat.trackr.live / text

‹ back to catalog

STARLINK-35613

NORAD 66097 · 2025-236M

PAYLOAD ACTIVE UNKNOWN

§ Identity

Operator
Country
US
Launch date
2025-10-19
Launch site
AFWTR
Launch vehicle
Mass (kg)
RCS (m²)

Purposes: comms

External: N2YO · Heavens-Above · Gunter

§ Orbital elements

Epoch: 2026-09-20T06:26:51.538848Z

Period
93.85 min
Inclination
53.1596°
Eccentricity
0.0001849
Mean motion
15.34400356 rev/d
Perigee alt
461.4 km
Apogee alt
464.0 km
Semi-major
6,840.8 km
B*
2.8185e-4
RAAN
278.7841°
Arg perigee
83.6929°
Mean anomaly
276.4285°
Rev number
5,275

§ Raw data

STARLINK-356131 66097U 25236M   26263.26865207  .00009158  00000+0  28185-3 0  99902 66097  53.1596 278.7841 0001849  83.6929 276.4285 15.34400356 52759

JSON: /api/v1/satellites/66097 · /tle

For live sub-satellite position, see the globe view (requires WebGL).

§ Visibility from observer

Set your observer location to see the next 7 days of passes ≥ 10°. The values pass through the URL so the page stays shareable.

No JS? Fill the form by hand. The geolocation button needs JavaScript.